Simultaneous Nadir Overpasses (SNOs) Predictions

Prediction of SNOs between GOES-15 and NPP Satellite Orbit:

Table of predicted SNOs for the next 14.0 days since TLE Epoch: 2/6/2015
Index Date Time (GOES-15) GOES-15 Lat,Lon NPP Lat,Lon Distance(km) Time Diff (sec)
1 02/08/2015 22:34:05 0.07,-135.22 -0.07,-135.95 82.94 80
2 02/09/2015 22:18:00 0.07,-135.24 0.92,-131.41 435.75 80
3 02/11/2015 10:39:47 -0.07,-135.26 0.23,-136.69 162.34 80
4 02/12/2015 10:18:22 -0.07,-135.28 -0.76,-132.16 355.41 80
5 02/13/2015 22:40:18 0.06,-135.30 -0.39,-137.47 247.19 80
6 02/14/2015 22:24:13 0.06,-135.31 0.60,-132.94 270.57 80
7 02/16/2015 10:45:59 -0.05,-135.33 0.60,-138.21 328.11 80
8 02/17/2015 10:24:33 -0.05,-135.34 -0.40,-133.68 188.76 80
9 02/18/2015 22:46:30
